| time (UTC) | temp F | wind direction | speed MPH | gust MPH | rain 1hr in | rain 24hr in | rain mn in | humidity % | barometer mb |
| 20260903071405 | 87 | 5 | 0.0 | 1.0 | 0.00 | 0.00 | 0.00 | 30 | 1011.1 |
| 20260903063404 | 87 | 274 | 1.0 | 1.0 | 0.00 | 0.00 | 0.00 | 30 | 1010.8 |
| 20260903061404 | 87 | 274 | 0.0 | 0.0 | 0.00 | 0.00 | 0.00 | 29 | 1010.9 |
| 20260903054405 | 90 | 274 | 0.0 | 1.0 | 0.00 | 0.00 | 0.00 | 25 | 1010.6 |
| 20260903053404 | 90 | 274 | 0.0 | 1.0 | 0.00 | 0.00 | 0.00 | 24 | 1010.6 |
| 20260903050404 | 92 | 274 | 0.0 | 2.0 | 0.00 | 0.00 | 0.00 | 24 | 1010.7 |
| 20260903044405 | 94 | 274 | 3.0 | 3.0 | 0.00 | 0.00 | 0.00 | 23 | 1010.7 |
| 20260903043404 | 94 | 284 | 2.0 | 7.0 | 0.00 | 0.00 | 0.00 | 23 | 1010.7 |
| 20260903041407 | 94 | 266 | 3.0 | 3.0 | 0.00 | 0.00 | 0.00 | 25 | 1010.6 |
| 20260903034404 | 96 | 245 | 4.0 | 6.0 | 0.00 | 0.00 | 0.00 | 31 | 1010.2 |
| 20260903033404 | 96 | 269 | 4.0 | 7.0 | 0.00 | 0.00 | 0.00 | 29 | 1010.1 |
| 20260903031405 | 96 | 269 | 5.0 | 7.0 | 0.00 | 0.00 | 0.00 | 28 | 1010.0 |
| 20260903030404 | 97 | 288 | 5.0 | 8.0 | 0.00 | 0.00 | 0.00 | 27 | 1009.9 |
| 20260903024406 | 97 | 260 | 5.0 | 9.0 | 0.00 | 0.00 | 0.00 | 26 | 1009.8 |
| 20260903023405 | 98 | 273 | 4.0 | 10.0 | 0.00 | 0.00 | 0.00 | 26 | 1009.8 |
| 20260902223407 | 103 | 298 | 8.0 | 13.0 | 0.00 | 0.00 | 0.00 | 26 | 1010.7 |
| 20260902221406 | 103 | 234 | 4.0 | 9.0 | 0.00 | 0.00 | 0.00 | 28 | 1010.9 |
| 20260902220403 | 102 | 169 | 5.0 | 10.0 | 0.00 | 0.00 | 0.00 | 31 | 1011.0 |
| 20260902214403 | 103 | 292 | 6.0 | 13.0 | 0.00 | 0.00 | 0.00 | 29 | 1011.3 |
| 20260902213407 | 102 | 215 | 10.0 | 12.0 | 0.00 | 0.00 | 0.00 | 30 | 1011.3 |
| 20260902204408 | 102 | 273 | 7.0 | 9.0 | 0.00 | 0.00 | 0.00 | 28 | 1012.1 |
| 20260902203406 | 103 | 250 | 2.0 | 10.0 | 0.00 | 0.00 | 0.00 | 27 | 1012.2 |
| 20260902201404 | 103 | 165 | 6.0 | 8.0 | 0.00 | 0.00 | 0.00 | 29 | 1012.6 |
| 20260902194405 | 102 | 234 | 4.0 | 8.0 | 0.00 | 0.00 | 0.00 | 30 | 1013.1 |
| 20260902193406 | 102 | 263 | 9.0 | 12.0 | 0.00 | 0.00 | 0.00 | 31 | 1013.3 |
| 20260902190404 | 100 | 197 | 5.0 | 9.0 | 0.00 | 0.00 | 0.00 | 32 | 1013.7 |
| 20260902184406 | 100 | 213 | 2.0 | 9.0 | 0.00 | 0.00 | 0.00 | 33 | 1013.9 |
| 20260902183407 | 98 | 217 | 5.0 | 12.0 | 0.00 | 0.00 | 0.00 | 34 | 1014.0 |
| 20260902180409 | 98 | 242 | 3.0 | 10.0 | 0.00 | 0.00 | 0.00 | 34 | 1014.3 |
| 20260902174405 | 97 | 298 | 5.0 | 9.0 | 0.00 | 0.00 | 0.00 | 35 | 1014.5 |
| 20260902173406 | 96 | 270 | 5.0 | 9.0 | 0.00 | 0.00 | 0.00 | 35 | 1014.5 |
| 20260902170403 | 95 | 237 | 5.0 | 12.0 | 0.00 | 0.00 | 0.00 | 37 | 1014.4 |
| 20260902164403 | 94 | 232 | 5.0 | 12.0 | 0.00 | 0.00 | 0.00 | 38 | 1014.5 |
| 20260902163406 | 94 | 231 | 6.0 | 8.0 | 0.00 | 0.00 | 0.00 | 38 | 1014.4 |
| 20260902161408 | 93 | 223 | 5.0 | 8.0 | 0.00 | 0.00 | 0.00 | 37 | 1014.4 |
| 20260902154406 | 91 | 250 | 6.0 | 10.0 | 0.00 | 0.00 | 0.00 | 42 | 1014.4 |
| 20260902153406 | 90 | 259 | 3.0 | 12.0 | 0.00 | 0.00 | 0.00 | 45 | 1014.4 |
| 20260902151406 | 89 | 238 | 5.0 | 8.0 | 0.00 | 0.00 | 0.00 | 48 | 1014.2 |
| 20260902150406 | 88 | 238 | 5.0 | 6.0 | 0.00 | 0.00 | 0.00 | 48 | 1014.0 |
| 20260902144408 | 87 | 222 | 3.0 | 3.0 | 0.00 | 0.00 | 0.00 | 48 | 1013.9 |
| 20260902143403 | 86 | 222 | 2.0 | 3.0 | 0.00 | 0.00 | 0.00 | 49 | 1014.0 |
| 20260902140409 | 84 | 222 | 2.0 | 3.0 | 0.00 | 0.00 | 0.00 | 52 | 1013.7 |
| 20260902134406 | 83 | 221 | 2.0 | 3.0 | 0.00 | 0.00 | 0.00 | 52 | 1013.4 |
| 20260902133406 | 84 | 221 | 1.0 | 2.0 | 0.00 | 0.00 | 0.00 | 52 | 1013.3 |
| 20260902131406 | 84 | 221 | 0.0 | 2.0 | 0.00 | 0.00 | 0.00 | 50 | 1013.1 |
| 20260902130403 | 84 | 221 | 1.0 | 1.0 | 0.00 | 0.00 | 0.00 | 50 | 1013.0 |
| 20260902124403 | 84 | 221 | 0.0 | 1.0 | 0.00 | 0.00 | 0.00 | 50 | 1012.7 |
| 20260902123404 | 85 | 221 | 1.0 | 2.0 | 0.00 | 0.00 | 0.00 | 50 | 1012.7 |
| 20260902121406 | 85 | 221 | 1.0 | 2.0 | 0.00 | 0.00 | 0.00 | 50 | 1012.7 |
| 20260902120408 | 85 | 221 | 1.0 | 3.0 | 0.00 | 0.00 | 0.00 | 49 | 1012.6 |
| 20260902114404 | 85 | 221 | 0.0 | 2.0 | 0.00 | 0.00 | 0.00 | 49 | 1012.4 |
| 20260902113407 | 85 | 221 | 1.0 | 3.0 | 0.00 | 0.00 | 0.00 | 49 | 1012.3 |
| 20260902111405 | 86 | 221 | 0.0 | 5.0 | 0.00 | 0.00 | 0.00 | 48 | 1012.1 |